"Pseudo-MPEC" for ZTF10DC

Created 2026 Apr 10 13:35:11 UT using Find_Orb

Click here for an explanation of pseudo-MPECs

 
 Astrometry: 
     ZTF10DC*0C2026 04 04.22785508 11 02.579+04 59 17.54   ~44B5 18.15iUNEOCPI41
     ZTF10DC 0C2026 04 04.22820308 11 02.588+04 59 11.28   ~44B5 18.15iUNEOCPI41
     ZTF10DC 0C2026 04 04.27614508 11 52.724+04 44 59.27   ~44B5 17.64RUNEOCPI41
     ZTF10DC 0C2026 04 04.27649208 11 52.726+04 44 53.34   ~44B5 17.64RUNEOCPI41

Station data:
(I41) Palomar Mountain--ZTF  (N33.357336 W116.859780)  US/California.
   Observers B. T. Bolin, Z. T. F. Collaboration. Measurers B. T. Bolin,
   Z.-Y. Lin, F. J. Masci. 1.2-m f/2.4 Schmidt.

Orbital elements:  ZTF10DC
   Perigee 2026 Apr 8.729442 TT = 17:30:23.7 (JD 2461139.229442)
Epoch 2026 Apr  4.0 TT = JDT 2461134.5                           AutoNEOCP
M 350.020384312                     (J2000 equator)
n   2.110104420    Peri.  212.433172
a   0.008685779    Node   310.452322
e   0.58293878     Incl.   35.685703
P 170.6044d        H   27.79    G   0.15   q 541918.5387km  Q 0.013749057
From 4 observations 2026 Apr. 4 (70.0 min); mean residual 1".89
Residuals in arcseconds: 
260404 I41  2.4+  .05+    260404 I41  2.9+  .13-    
260404 I41  2.5-  .07-    260404 I41  2.9-  .14+    

Ephemerides (geocentric):
Date (UTC) HH   RA             Dec           delta  r     elong  mag
---- --------  ------------   ------------  ------ ------ -----  ---
2026 04 10 14  11 40 49.907   -26 37 06.22  551214 1.0051 150.9 16.9
2026 04 10 15  11 42 27.208   -26 46 44.97  551673 1.0051 151.0 16.9
2026 04 10 16  11 44 04.621   -26 56 18.44  552142 1.0051 151.2 16.9
2026 04 10 17  11 45 42.141   -27 05 46.59  552621 1.0051 151.4 16.9
2026 04 10 18  11 47 19.764   -27 15 09.38  553109 1.0052 151.6 16.9
2026 04 10 19  11 48 57.486   -27 24 26.78  553606 1.0052 151.7 16.9
2026 04 10 20  11 50 35.304   -27 33 38.75  554114 1.0052 151.9 16.9
2026 04 10 21  11 52 13.214   -27 42 45.26  554631 1.0052 152.1 16.9
2026 04 10 22  11 53 51.210   -27 51 46.28  555157 1.0052 152.2 16.9
2026 04 10 23  11 55 29.289   -28 00 41.78  555693 1.0053 152.4 16.9
2026 04 11 00  11 57 07.446   -28 09 31.72  556238 1.0053 152.5 16.9
2026 04 11 01  11 58 45.677   -28 18 16.08  556793 1.0053 152.7 16.9
2026 04 11 02  12 00 23.978   -28 26 54.83  557357 1.0053 152.8 16.9
2026 04 11 03  12 02 02.344   -28 35 27.94  557930 1.0053 153.0 16.9
2026 04 11 04  12 03 40.771   -28 43 55.40  558513 1.0054 153.1 16.9
2026 04 11 05  12 05 19.254   -28 52 17.17  559105 1.0054 153.2 16.9
2026 04 11 06  12 06 57.789   -29 00 33.22  559705 1.0054 153.4 16.9
2026 04 11 07  12 08 36.371   -29 08 43.55  560315 1.0054 153.5 16.9
2026 04 11 08  12 10 14.995   -29 16 48.13  560934 1.0054 153.6 16.9
2026 04 11 09  12 11 53.656   -29 24 46.94  561563 1.0055 153.7 16.9
2026 04 11 10  12 13 32.350   -29 32 39.96  562200 1.0055 153.9 16.9
2026 04 11 11  12 15 11.073   -29 40 27.18  562846 1.0055 154.0 16.9
2026 04 11 12  12 16 49.818   -29 48 08.57  563501 1.0055 154.1 16.9
2026 04 11 13  12 18 28.583   -29 55 44.13  564164 1.0055 154.2 16.9
2026 04 11 14  12 20 07.360   -30 03 13.85  564837 1.0056 154.3 16.9
2026 04 11 15  12 21 46.146   -30 10 37.70  565518 1.0056 154.4 16.9
2026 04 11 16  12 23 24.936   -30 17 55.68  566208 1.0056 154.5 16.9
2026 04 11 17  12 25 03.725   -30 25 07.78  566906 1.0056 154.6 16.9
2026 04 11 18  12 26 42.507   -30 32 13.99  567614 1.0056 154.6 16.9
2026 04 11 19  12 28 21.278   -30 39 14.30  568329 1.0057 154.7 16.9
2026 04 11 20  12 30 00.033   -30 46 08.71  569053 1.0057 154.8 16.9
2026 04 11 21  12 31 38.767   -30 52 57.21  569786 1.0057 154.9 16.9
2026 04 11 22  12 33 17.474   -30 59 39.80  570527 1.0057 154.9 16.9
2026 04 11 23  12 34 56.150   -31 06 16.47  571276 1.0057 155.0 16.9
2026 04 12 00  12 36 34.789   -31 12 47.23  572033 1.0057 155.1 16.9
2026 04 12 01  12 38 13.387   -31 19 12.07  572799 1.0058 155.1 16.9
2026 04 12 02  12 39 51.938   -31 25 31.00  573573 1.0058 155.2 16.9
2026 04 12 03  12 41 30.438   -31 31 44.01  574355 1.0058 155.2 16.9
2026 04 12 04  12 43 08.880   -31 37 51.11  575145 1.0058 155.3 16.9
2026 04 12 05  12 44 47.261   -31 43 52.30  575943 1.0058 155.3 16.9
2026 04 12 06  12 46 25.574   -31 49 47.59  576749 1.0059 155.4 16.9
2026 04 12 07  12 48 03.816   -31 55 36.99  577563 1.0059 155.4 16.9
2026 04 12 08  12 49 41.980   -32 01 20.49  578385 1.0059 155.4 16.9
2026 04 12 09  12 51 20.062   -32 06 58.12  579214 1.0059 155.5 16.9
2026 04 12 10  12 52 58.056   -32 12 29.88  580052 1.0059 155.5 16.9
2026 04 12 11  12 54 35.958   -32 17 55.77  580897 1.0059 155.5 16.9
2026 04 12 12  12 56 13.762   -32 23 15.82  581749 1.0060 155.5 16.9
2026 04 12 13  12 57 51.464   -32 28 30.04  582609 1.0060 155.5 16.9